[[{"header":{"parameterUnit":"m.s-1","parameterCategory":1,"la1":30.2991,"la2":30.254,"lo1":-89.0895,"lo2":-89.0444,"dy":0.0017,"dx":0.0017,"nx":28,"ny":28,"refTime":"2025-03-18T03:00:00:Z","depth":0,"parameterNumber":2,"parameterNumberName":"U-component_of_WINDS"},"data":[0,0,0,0,0,0,0,0,0,0,0,0,0,0,0,0,0,0,0,0,0,0,0,0,0,0,0,0,0,0,0,0,0,0,0,0,0,0,0,0,0,0,0,0,0,0,0,0,0,0,0,0,0,0,0,0,0,0,0.1528,0.1528,0,0.1524,0.1524,0.1524,0.1507,0.1507,0.1506,0.1506,0.1501,0.1501,0.1502,0,0,0,0,0,0,0,0,0,0,0,0,0,0.152,0.1521,0.1528,0.1528,0.1528,0.1524,0.1524,0.1524,0.1507,0.1507,0.1506,0.1506,0.1501,0.1501,0.1502,0,0,0,0,0,0,0,0,0,0,0,0,0,0.1521,0.1521,0.1528,0.1519,0.1519,0.1524,0.1524,0.1524,0.1507,0.1507,0.1506,0.1506,0.1501,0.1501,0.1502,0.1516,0,0,0.1503,0.1503,0,0,0,0,0,0,0,0,0.1521,0.1521,0.1521,0.152,0.1519,0.1516,0.152,0.1521,0.1507,0.1512,0.1506,0.1505,0.1506,0.1506,0.1507,0.1516,0.1515,0.1503,0.1503,0.1503,0.1503,0,0,0,0,0,0,0,0.1521,0.1521,0.1527,0.1521,0.152,0.1515,0.1514,0.152,0.1512,0.1511,0.151,0.151,0.1506,0.1507,0.1507,0.1515,0.1503,0.1503,0.1503,0.1504,0.1534,0.1534,0,0,0,0,0,0,0.1522,0.1521,0.1527,0.1527,0.1519,0.1516,0.1515,0.1517,0.1512,0.1511,0.151,0.1509,0.1506,0.1506,0.1506,0.1521,0.1503,0.1504,0.1504,0.1533,0.1534,0.1535,0,0,0,0,0,0,0.1522,0.1523,0.1527,0.1524,0.1524,0.1516,0.1519,0.1518,0.1518,0.1512,0.151,0.1512,0.1506,0.1506,0.1513,0.1521,0.1504,0.1504,0.1532,0.1533,0.1534,0.1552,0,0,0,0,0,0,0.1522,0.1523,0.1529,0.1524,0.1524,0.1535,0.152,0.1518,0.1519,0.1517,0.1513,0.1512,0.1505,0.1513,0.1514,0.1521,0.1504,0.1532,0.1533,0.1534,0.1551,0.1554,0.1556,0,0,0,0,0,0.1522,0.1534,0.1529,0.153,0.1531,0.1535,0.1535,0.1527,0.152,0.1525,0.152,0.1512,0.152,0.1514,0.1514,0.1522,0.1531,0.1533,0.1534,0.155,0.1553,0.1556,0,0,0,0,0,0,0.154,0.1533,0.1528,0.1539,0.1538,0.1532,0.1539,0.1531,0.1532,0.1531,0.1521,0.152,0.1529,0.1526,0.1519,0.1535,0.1524,0.1526,0.1536,0.1539,0.1542,0.1542,0.1505,0,0,0,0,0,0.1545,0.1549,0.1543,0.1554,0.1553,0.1546,0.1548,0.1542,0.154,0.1539,0.1535,0.1534,0.1536,0.1537,0.1539,0.1551,0.1549,0.1556,0.1559,0.1561,0.1562,0.1567,0.157,0.1539,0.1539,0.1539,0,0,0.1556,0.1553,0.1556,0.1557,0.1556,0.1559,0.1546,0.1551,0.1553,0.154,0.1546,0.1544,0.1541,0.155,0.1554,0.1549,0.157,0.1563,0.1564,0.1564,0.1568,0.1571,0.1574,0.154,0.154,0.1539,0,0,0.1578,0.1577,0.1584,0.1583,0.1581,0.1575,0.1577,0.1573,0.157,0.1577,0.1566,0.1569,0.1573,0.1572,0.1571,0.1591,0.1583,0.1592,0.1605,0.161,0.1612,0.1614,0.1621,0.1623,0.1594,0.1594,0.1594,0,0.1592,0.1598,0.159,0.1595,0.1595,0.1583,0.159,0.1589,0.1588,0.1588,0.1582,0.1586,0.1583,0.1591,0.1596,0.1597,0.1598,0.1592,0.1613,0.1615,0.1616,0.1622,0.1625,0.1595,0.1595,0.1594,0.1594,0,0.1614,0.1618,0.1625,0.1623,0.1624,0.1631,0.1623,0.1625,0.1619,0.1614,0.162,0.1617,0.1617,0.1619,0.1613,0.1625,0.1622,0.1614,0.1603,0.1621,0.1626,0.1628,0.1596,0.1596,0.1595,0.1595,0,0,0.1648,0.1641,0.1643,0.1642,0.1638,0.164,0.1646,0.1646,0.1647,0.1646,0.165,0.1653,0.1646,0.1646,0.164,0.1644,0.1659,0.1636,0.1635,0.1639,0.1671,0.1676,0.1679,0.1654,0.1654,0.1654,0.1671,0,0.1667,0.1676,0.1669,0.1679,0.1682,0.167,0.1675,0.1673,0.1668,0.167,0.1665,0.1667,0.1658,0.1658,0.1661,0.1656,0.1665,0.1655,0.1656,0.1656,0.1656,0.1682,0.1687,0.1703,0.1673,0.1673,0.1674,0,0.1692,0.1692,0.1702,0.1696,0.1697,0.1702,0.17,0.1703,0.1699,0.1696,0.1695,0.1687,0.1692,0.1681,0.1687,0.168,0.168,0.1677,0.1678,0.1677,0.1666,0.1681,0.1708,0.1711,0.1677,0.1677,0.1677,0,0.1714,0.1716,0.1722,0.1721,0.1715,0.1718,0.1716,0.1712,0.1713,0.1712,0.1711,0.1711,0.1711,0.171,0.1702,0.1696,0.1708,0.1698,0.1705,0.1705,0.1707,0.1707,0.1735,0.1709,0.1709,0.1709,0.1709,0,0.1736,0.1743,0.1732,0.1735,0.1742,0.1733,0.174,0.1736,0.1733,0.1735,0.1725,0.1728,0.1718,0.1719,0.1713,0.1717,0.1718,0.1714,0.1713,0.1715,0.1715,0.1714,0.1713,0.1709,0.1709,0.1709,0.1709,0,0.1761,0.1754,0.176,0.1754,0.1752,0.1757,0.1752,0.1754,0.1749,0.1752,0.1753,0.1745,0.1745,0.1738,0.1737,0.1733,0.174,0.1737,0.1741,0.174,0.1747,0.1746,0.1774,0.1777,0.175,0.175,0.1751,0,0.1776,0.178,0.1774,0.1775,0.1773,0.1775,0.1775,0.1766,0.1766,0.1762,0.1766,0.1766,0.1765,0.1767,0.176,0.176,0.1756,0.1765,0.1755,0.1757,0.1755,0.1754,0.1754,0.1767,0.1768,0.1768,0.1768,0,0.1802,0.1798,0.1798,0.1797,0.1797,0.1796,0.1794,0.1796,0.1786,0.1787,0.1787,0.1787,0.1786,0.1785,0.1783,0.178,0.1772,0.1771,0.1773,0.1775,0.1777,0.1775,0.1746,0.1771,0.177,0.177,0.177,0.177,0.1821,0.1824,0.182,0.1821,0.1818,0.1817,0.1819,0.1814,0.1814,0.1812,0.1807,0.1808,0.1804,0.1801,0.1798,0.1799,0.1794,0.1796,0.1797,0.1797,0.1798,0.1777,0.1799,0.1798,0.1798,0.1798,0.1798,0,0.1845,0.1842,0.1843,0.184,0.184,0.1833,0.183,0.1831,0.1832,0.1829,0.1829,0.1829,0.1828,0.1822,0.1821,0.1822,0.1818,0.1822,0.1821,0.1821,0.1803,0.1802,0.1825,0.1825,0.1825,0.1825,0.1825,0.1825,0.1858,0.1863,0.1858,0.1861,0.1858,0.1859,0.1858,0.1856,0.1853,0.1854,0.1853,0.1849,0.1845,0.1843,0.1842,0.184,0.1839,0.1844,0.1841,0.1825,0.1822,0.1819,0.1818,0.1844,0.1844,0.1858,0.1858,0.1858]},{"header":{"parameterUnit":"m.s-1","parameterCategory":1,"la1":30.2991,"la2":30.254,"lo1":-89.0895,"lo2":-89.0444,"dy":0.0017,"dx":0.0017,"nx":28,"ny":28,"refTime":"2025-03-18T03:00:00:Z","depth":0,"parameterNumber":3,"parameterNumberName":"V-component_of_WINDS"},"data":[0,0,0,0,0,0,0,0,0,0,0,0,0,0,0,0,0,0,0,0,0,0,0,0,0,0,0,0,0,0,0,0,0,0,0,0,0,0,0,0,0,0,0,0,0,0,0,0,0,0,0,0,0,0,0,0,0,0,7.6707,7.6709,0,7.6846,7.6848,7.685,7.6803,7.6799,7.6796,7.6794,7.6927,7.6933,7.6939,0,0,0,0,0,0,0,0,0,0,0,0,0,7.639,7.6397,7.6707,7.6709,7.6711,7.6846,7.6848,7.685,7.6803,7.6799,7.6796,7.6792,7.6925,7.6932,7.694,0,0,0,0,0,0,0,0,0,0,0,0,0,7.6528,7.6399,7.6707,7.6704,7.6705,7.6846,7.6848,7.685,7.6804,7.6799,7.6795,7.6791,7.6922,7.6932,7.6941,7.709,0,0,7.697,7.6974,0,0,0,0,0,0,0,0,7.6521,7.654,7.6703,7.6704,7.6706,7.6803,7.6785,7.6931,7.6805,7.6766,7.6794,7.6788,7.6889,7.6901,7.6936,7.7097,7.7102,7.6971,7.6977,7.6981,7.6984,0,0,0,0,0,0,0,7.6511,7.6534,7.6762,7.6705,7.6707,7.6692,7.6707,7.6813,7.6851,7.6769,7.6766,7.6784,7.6889,7.6927,7.6939,7.7104,7.6971,7.6979,7.6985,7.6989,7.739,7.7395,0,0,0,0,0,0,7.6502,7.6526,7.6758,7.6766,7.6601,7.6702,7.6718,7.6776,7.6849,7.6857,7.6787,7.6781,7.6913,7.6928,7.6944,7.7121,7.6981,7.699,7.6995,7.7385,7.7391,7.7397,0,0,0,0,0,0,7.6496,7.6523,7.6752,7.6646,7.6674,7.6712,7.6777,7.6781,7.682,7.6864,7.6869,7.6821,7.691,7.693,7.7054,7.7125,7.6994,7.7003,7.738,7.7387,7.7394,7.7479,0,0,0,0,0,0,7.6487,7.6521,7.6581,7.6647,7.668,7.6864,7.6782,7.6787,7.6838,7.6831,7.6896,7.6902,7.6908,7.704,7.7064,7.7136,7.701,7.7373,7.7383,7.7392,7.747,7.7488,7.7504,0,0,0,0,0,7.6476,7.6598,7.6584,7.6612,7.6756,7.6868,7.6886,7.6893,7.6844,7.6902,7.6929,7.69,7.7114,7.7053,7.7079,7.7155,7.7369,7.738,7.7391,7.7462,7.7484,7.7503,0,0,0,0,0,0,7.6536,7.6606,7.6592,7.674,7.6799,7.686,7.6934,7.6917,7.6988,7.6978,7.698,7.6995,7.7122,7.7151,7.7082,7.7302,7.7234,7.725,7.7278,7.73,7.7317,7.7306,7.7018,0,0,0,0,0,7.6567,7.6656,7.6711,7.6836,7.6867,7.6896,7.6945,7.6945,7.7004,7.7028,7.7064,7.712,7.7199,7.7252,7.7327,7.7474,7.7485,7.7539,7.7556,7.757,7.7583,7.766,7.7683,7.7433,7.7433,7.7433,0,0,7.6631,7.668,7.6736,7.685,7.6895,7.6983,7.6916,7.7013,7.7077,7.7041,7.7161,7.719,7.7252,7.7387,7.7448,7.7415,7.7655,7.7584,7.7595,7.7601,7.7674,7.7697,7.7718,7.7441,7.7439,7.7438,0,0,7.6792,7.684,7.6949,7.6996,7.7066,7.7084,7.711,7.7174,7.7193,7.7313,7.7288,7.7362,7.75,7.7545,7.7585,7.7762,7.7737,7.7787,7.7875,7.7949,7.7969,7.7986,7.8047,7.8069,7.7801,7.7801,7.7801,0,7.6862,7.6997,7.7006,7.7105,7.7154,7.7128,7.7236,7.728,7.737,7.7403,7.7365,7.7536,7.7576,7.772,7.7764,7.7799,7.7825,7.7778,7.7966,7.7984,7.8,7.8057,7.808,7.7806,7.7806,7.7805,7.7805,0,7.7078,7.7172,7.725,7.7341,7.7399,7.7501,7.7522,7.7579,7.7574,7.7595,7.7716,7.7764,7.7847,7.7882,7.7877,7.8024,7.8001,7.7965,7.7896,7.8029,7.8083,7.8105,7.7814,7.7812,7.7811,7.7809,0,0,7.728,7.7375,7.7403,7.7443,7.7518,7.7589,7.7688,7.7773,7.7821,7.7883,7.7964,7.8081,7.8048,7.8094,7.8094,7.816,7.8293,7.8115,7.8116,7.8144,7.8455,7.848,7.8506,7.8278,7.8282,7.8285,7.8449,0,7.7446,7.7625,7.7635,7.7796,7.788,7.7857,7.7943,7.7996,7.8018,7.809,7.8113,7.8195,7.8146,7.8174,7.8238,7.8263,7.8355,7.8252,7.8349,7.8353,7.8333,7.8534,7.8562,7.8713,7.847,7.8474,7.8476,0,7.7663,7.7735,7.7905,7.7967,7.8002,7.808,7.8157,7.8228,7.8287,7.8297,7.8349,7.8339,7.8437,7.8367,7.85,7.8429,7.8469,7.8488,7.8494,7.8501,7.8421,7.8544,7.8762,7.8784,7.851,7.8507,7.8505,0,7.7791,7.793,7.8049,7.8084,7.8159,7.8214,7.8247,7.8302,7.8351,7.8418,7.8449,7.8525,7.8566,7.8623,7.8632,7.8581,7.8765,7.8695,7.8773,7.8773,7.8812,7.8809,7.9037,7.8842,7.8842,7.8841,7.8841,0,7.7974,7.8078,7.8107,7.818,7.8295,7.8304,7.8416,7.8444,7.8493,7.8568,7.8552,7.8622,7.8631,7.8703,7.8711,7.8818,7.8837,7.8846,7.8846,7.8846,7.8845,7.8871,7.886,7.8847,7.8846,7.8845,7.8844,0,7.8135,7.8159,7.8287,7.8348,7.8366,7.8448,7.8498,7.8566,7.8586,7.8681,7.8704,7.8734,7.8818,7.8834,7.8931,7.8936,7.9063,7.9054,7.9044,7.9042,7.9119,7.911,7.937,7.9403,7.9188,7.9191,7.9192,0,7.8249,7.8329,7.8399,7.845,7.8486,7.8568,7.8619,7.863,7.8682,7.8755,7.8813,7.8895,7.8961,7.9095,7.9123,7.9197,7.9188,7.9274,7.9199,7.9195,7.9186,7.918,7.9187,7.9287,7.9289,7.9291,7.9293,0,7.8448,7.8456,7.8531,7.8611,7.8673,7.8735,7.8794,7.8836,7.8854,7.8913,7.9,7.9052,7.9152,7.9232,7.9306,7.9336,7.9316,7.9317,7.9338,7.9338,7.9328,7.9332,7.9081,7.931,7.9308,7.9307,7.9306,7.9306,7.8587,7.8656,7.8716,7.88,7.8846,7.8902,7.8968,7.8997,7.907,7.9155,7.9156,7.9249,7.9303,7.94,7.9435,7.9506,7.9478,7.951,7.9517,7.9524,7.9531,7.9319,7.9519,7.9519,7.9518,7.9518,7.9518,0,7.8783,7.882,7.8898,7.8982,7.9047,7.9027,7.9091,7.9145,7.9229,7.9282,7.9348,7.9446,7.9523,7.9558,7.9634,7.9683,7.9676,7.9702,7.9698,7.9704,7.9552,7.9525,7.9707,7.9707,7.9707,7.9707,7.9707,7.9707,7.8892,7.9007,7.9022,7.9158,7.9194,7.9288,7.9325,7.9375,7.9417,7.9528,7.9594,7.9617,7.9661,7.974,7.9809,7.9817,7.9844,7.9874,7.9878,7.9734,7.9715,7.9697,7.9671,7.9881,7.9881,8.0023,8.0025,8.0026]}]]